Location: Carri�res
(48.9069°N, 2.1792°E)
Time: 18:59:35
(UTC+00:00)

SeaSat 1 - Pass Details

Date: 10 May 2021
Orbit: 744 x 747 km, 108.0° (Epoch: 12 June)

Event Time Altitude Azimuth Distance (km) Brightness Sun altitude
Rises 23:44:14 0° 33° (NNE) 3,202 6.6 -23.2°
Reaches altitude 10° 23:46:34 10° 38° (NE) 2,274 5.6 -23.2°
Maximum altitude 23:51:23 50° 114° (ESE) 947 2.7 -23.2°
Enters shadow 23:51:44 49° 129° (SE) 958 2.7 -23.2°
